Home   Weather   Neustrelitz   Past weeks

Flag for Germany Past Weather in Neustrelitz, Mecklenburg-Western Pomerania, Germany — Yesterday and Last 2 Weeks

46 °F

Partly sunny.

Feels Like: 44 °F
Forecast: 37 / 50 °F
Wind: 6 mph from Southeast

Location: Laage

Current Time: Oct 23, 2016 at 6:17:34 PM

Latest Report: Oct 23, 2016 at 5:20 PM

Visibility: 4 mi

Pressure: 30.01 "Hg

Humidity: 87%

Dew Point: 43 °F

Location of NeustrelitzLocation

Past Weather in Neustrelitz — Graph


Neustrelitz Temperature Yesterday

Maximum temperature yesterday: 46 °F (at 11:20 AM)
Minimum temperature yesterday: 43 °F (at 11:20 PM)
Average temperature yesterday: 45 °F

High & Low Weather Summary for the Past Weeks

High52 °F (Oct 8, 4:20 PM)100% (Oct 9, 11:20 PM)30.30 "Hg (Oct 9, 11:20 PM)
Low34 °F (Oct 10, 6:20 AM)62% (Oct 8, 4:20 PM)29.89 "Hg (Oct 15, 7:20 AM)
Average46 °F91%30.10 "Hg
* Reported Oct 8 4:20 PM — Oct 23 4:20 PM, Neustrelitz, Weather by CustomWeather, © 2016

Note: Actual official high and low records may vary slightly from our data, if they occured in-between our weather recording intervals... More about our weather records


Neustrelitz Weather History for the Previous 24 Hours

Scroll right to see more
Time TempWeatherWind HumidityBarometerVisibility
4:20 PM
Sun, Oct 23
48 °FBroken clouds.7 mph82%30.01 "HgN/A
3:20 PM48 °FBroken clouds.6 mph82%30.01 "Hg5 mi
2:50 PM48 °FPartly sunny.6 mph82%30.01 "Hg5 mi
2:20 PM48 °FBroken clouds.6 mph82%30.01 "Hg4 mi
1:20 PM46 °FPartly sunny.3 mph87%30.01 "Hg4 mi
12:46 PM46 °FFog.5 mph87%30.01 "Hg3 mi
12:20 PM45 °FFog.3 mph93%30.01 "Hg3 mi
11:47 AM45 °FFog.3 mph93%30.04 "Hg2 mi
11:20 AM45 °FFog.3 mph93%30.01 "Hg2 mi
10:20 AM43 °FFog.3 mph93%30.01 "Hg2 mi
9:20 AM43 °FFog.3 mph93%30.01 "Hg2 mi
8:57 AM43 °FFog.3 mph93%30.01 "Hg2 mi
8:20 AM41 °FFog.3 mph100%29.98 "Hg2 mi
7:20 AM41 °FFog.2 mph100%29.98 "Hg2 mi
6:20 AM43 °FFog.3 mph93%29.98 "Hg1 mi
5:20 AM41 °FFog.No wind100%29.98 "Hg1 mi
4:20 AM43 °FFog.3 mph93%29.95 "Hg2 mi
3:20 AM43 °FPassing clouds.3 mph93%29.98 "Hg4 mi
2:20 AM43 °FOvercast.3 mph100%29.98 "Hg4 mi
1:20 AM43 °FPassing clouds.3 mph93%29.98 "Hg4 mi
12:20 AM43 °FPassing clouds.2 mph93%29.95 "HgN/A
11:20 PM
Sat, Oct 22
43 °FMostly cloudy.2 mph100%29.95 "HgN/A
10:20 PM45 °FMostly cloudy.2 mph93%29.95 "Hg5 mi
9:20 PM45 °FFog.2 mph93%29.95 "Hg3 mi
8:20 PM45 °FDrizzle. Fog.2 mph93%29.95 "Hg2 mi
7:20 PM45 °FDrizzle. Fog.2 mph100%29.95 "Hg3 mi
6:20 PM46 °FDrizzle. Fog.2 mph93%29.92 "Hg2 mi
Weather by CustomWeather, © 2016

See weather overviewHow to use our weather pages